When you browse on this site, cookies collect data to enhance your experience and personalize the content and advertising you see.
Visit our Privacy Policy to learn more. By continuing to use the site, you agree to this use of cookies and data.
  • In United Kingdom
  • List of Countries
  • For 7 days
  • Water Temperature
  • Weather Map
  • Weather Widgets
  • user-avatar
    Login

    Hourly Weather Draganesti-Olt

    Today, 21 October, Monday

    Time Temperature Precipitation Wind Pressure Humidity
    00:00 +18°C° 0 mm 2 mps 759 mmHg 58%
    01:00 +18°C° 0 mm 2 mps 759 mmHg 60%
    02:00 +17°C° 0 mm 2 mps 759 mmHg 62%
    03:00 +17°C° 0 mm 2 mps 759 mmHg 63%
    04:00 +17°C° 0 mm 2 mps 759 mmHg 64%
    05:00 +16°C° 0 mm 2 mps 759 mmHg 65%
    06:00 +17°C° 0 mm 2 mps 759 mmHg 64%
    07:00 +18°C° 0 mm 1 mps 759 mmHg 63%
    08:00 +18°C° 0 mm 1 mps 759 mmHg 61%
    09:00 +20°C° 0 mm 1 mps 759 mmHg 55%
    10:00 +22°C° 0 mm 1 mps 759 mmHg 49%
    11:00 +24°C° 0 mm 1 mps 759 mmHg 43%
    12:00 +25°C° 0 mm 1 mps 759 mmHg 40%
    13:00 +26°C° 0 mm 1 mps 759 mmHg 37%
    14:00 +27°C° 0 mm 1 mps 759 mmHg 34%
    15:00 +27°C° 0 mm 1 mps 758 mmHg 35%
    16:00 +26°C° 0 mm 1 mps 758 mmHg 37%
    17:00 +25°C° 0 mm 1 mps 758 mmHg 38%
    18:00 +24°C° 0 mm 1 mps 758 mmHg 41%
    19:00 +23°C° 0 mm 1 mps 759 mmHg 44%
    20:00 +22°C° 0 mm 1 mps 759 mmHg 47%
    21:00 +22°C° 0 mm 1 mps 759 mmHg 49%
    22:00 +21°C° 0 mm 1 mps 759 mmHg 51%
    23:00 +20°C° 0 mm 1 mps 759 mmHg 54%

    Tomorrow, 22 October, Tuesday

    Time Temperature Precipitation Wind Pressure Humidity
    00:00 +20°C° 0 mm 1 mps 759 mmHg 56%
    01:00 +19°C° 0 mm 1 mps 759 mmHg 59%
    02:00 +19°C° 0 mm 1 mps 759 mmHg 61%
    03:00 +19°C° 0 mm 1 mps 759 mmHg 63%
    04:00 +18°C° 0 mm 1 mps 759 mmHg 65%
    05:00 +18°C° 0 mm 1 mps 759 mmHg 67%
    06:00 +18°C° 0 mm 1 mps 760 mmHg 66%
    07:00 +18°C° 0 mm 1 mps 760 mmHg 65%
    08:00 +18°C° 0 mm 2 mps 760 mmHg 64%
    09:00 +19°C° 0 mm 2 mps 760 mmHg 57%
    10:00 +21°C° 0 mm 2 mps 760 mmHg 51%
    11:00 +24°C° 0 mm 2 mps 760 mmHg 44%
    12:00 +25°C° 0 mm 2 mps 760 mmHg 41%
    13:00 +26°C° 0 mm 2 mps 760 mmHg 39%
    14:00 +27°C° 0 mm 2 mps 760 mmHg 36%
    15:00 +26°C° 0 mm 2 mps 759 mmHg 37%
    16:00 +26°C° 0 mm 2 mps 759 mmHg 39%
    17:00 +25°C° 0 mm 2 mps 759 mmHg 41%
    18:00 +24°C° 0 mm 2 mps 759 mmHg 43%
    19:00 +23°C° 0 mm 2 mps 760 mmHg 46%
    20:00 +20°C° 0 mm 2 mps 760 mmHg 48%
    21:00 +20°C° 0 mm 2 mps 760 mmHg 47%
    22:00 +19°C° 0 mm 2 mps 760 mmHg 47%
    23:00 +18°C° 0 mm 2 mps 760 mmHg 46%

    Day after tomorrow, 23 October, Wednesday

    Time Temperature Precipitation Wind Pressure Humidity
    00:00 +18°C° 0 mm 2 mps 760 mmHg 49%
    01:00 +17°C° 0 mm 2 mps 760 mmHg 52%
    02:00 +17°C° 0 mm 2 mps 760 mmHg 56%
    03:00 +16°C° 0 mm 2 mps 760 mmHg 59%
    04:00 +16°C° 0 mm 2 mps 760 mmHg 63%
    05:00 +15°C° 0 mm 2 mps 760 mmHg 66%
    06:00 +16°C° 0 mm 2 mps 760 mmHg 67%
    07:00 +16°C° 0 mm 2 mps 760 mmHg 67%
    08:00 +16°C° 0 mm 2 mps 760 mmHg 67%
    09:00 +18°C° 0 mm 2 mps 759 mmHg 60%
    10:00 +20°C° 0 mm 2 mps 759 mmHg 52%
    11:00 +23°C° 0 mm 2 mps 759 mmHg 45%
    12:00 +24°C° 0 mm 2 mps 759 mmHg 39%
    13:00 +25°C° 0 mm 2 mps 758 mmHg 34%
    14:00 +26°C° 0 mm 2 mps 758 mmHg 29%
    15:00 +26°C° 0 mm 2 mps 758 mmHg 29%
    16:00 +25°C° 0 mm 2 mps 757 mmHg 29%
    17:00 +24°C° 0 mm 2 mps 757 mmHg 29%
    18:00 +23°C° 0 mm 2 mps 757 mmHg 31%
    19:00 +21°C° 0 mm 2 mps 758 mmHg 33%
    20:00 +20°C° 0 mm 2 mps 758 mmHg 35%
    21:00 +19°C° 0 mm 2 mps 758 mmHg 39%
    22:00 +18°C° 0 mm 2 mps 758 mmHg 42%
    23:00 +18°C° 0 mm 2 mps 758 mmHg 46%

    24 October, Thursday

    Time Temperature Precipitation Wind Pressure Humidity
    00:00 +17°C° 0 mm 2 mps 758 mmHg 49%
    01:00 +17°C° 0 mm 2 mps 758 mmHg 52%
    02:00 +16°C° 0 mm 3 mps 758 mmHg 56%
    03:00 +16°C° 0 mm 2 mps 758 mmHg 58%
    04:00 +16°C° 0 mm 2 mps 758 mmHg 60%
    05:00 +15°C° 0 mm 2 mps 758 mmHg 62%
    06:00 +15°C° 0 mm 2 mps 758 mmHg 62%
    07:00 +16°C° 0 mm 2 mps 758 mmHg 62%
    08:00 +16°C° 0 mm 2 mps 757 mmHg 62%
    09:00 +18°C° 0 mm 2 mps 757 mmHg 55%
    10:00 +20°C° 0 mm 2 mps 757 mmHg 48%
    11:00 +23°C° 0 mm 2 mps 757 mmHg 41%
    12:00 +24°C° 0 mm 2 mps 757 mmHg 37%
    13:00 +25°C° 0 mm 2 mps 756 mmHg 33%
    14:00 +26°C° 0 mm 2 mps 756 mmHg 29%
    15:00 +25°C° 0 mm 2 mps 756 mmHg 30%
    16:00 +25°C° 0 mm 2 mps 756 mmHg 31%
    17:00 +24°C° 0 mm 2 mps 755 mmHg 32%
    18:00 +21°C° 0 mm 2 mps 755 mmHg 34%
    19:00 +20°C° 0 mm 2 mps 756 mmHg 36%
    20:00 +19°C° 0 mm 2 mps 756 mmHg 38%
    21:00 +18°C° 0 mm 2 mps 756 mmHg 40%
    22:00 +18°C° 0 mm 2 mps 756 mmHg 41%
    23:00 +17°C° 0 mm 2 mps 756 mmHg 43%

    25 October, Friday

    Time Temperature Precipitation Wind Pressure Humidity
    00:00 +17°C° 0 mm 2 mps 756 mmHg 45%
    01:00 +16°C° 0 mm 2 mps 756 mmHg 48%
    02:00 +16°C° 0 mm 3 mps 756 mmHg 50%
    03:00 +15°C° 0 mm 2 mps 756 mmHg 52%
    04:00 +15°C° 0 mm 2 mps 756 mmHg 55%
    05:00 +14°C° 0 mm 2 mps 756 mmHg 57%
    06:00 +14°C° 0 mm 2 mps 756 mmHg 57%
    07:00 +15°C° 0 mm 2 mps 756 mmHg 57%
    08:00 +15°C° 0 mm 1 mps 757 mmHg 57%
    09:00 +17°C° 0 mm 2 mps 757 mmHg 51%
    10:00 +19°C° 0 mm 2 mps 757 mmHg 46%
    11:00 +21°C° 0 mm 2 mps 757 mmHg 40%
    12:00 +23°C° 0 mm 2 mps 757 mmHg 36%
    13:00 +24°C° 0 mm 2 mps 756 mmHg 33%
    14:00 +26°C° 0 mm 1 mps 756 mmHg 30%
    15:00 +25°C° 0 mm 1 mps 756 mmHg 31%
    16:00 +24°C° 0 mm 1 mps 756 mmHg 33%
    17:00 +23°C° 0 mm 1 mps 756 mmHg 35%
    18:00 +22°C° 0 mm 1 mps 756 mmHg 38%
    19:00 +21°C° 0 mm 1 mps 757 mmHg 40%
    20:00 +20°C° 0 mm 1 mps 757 mmHg 43%
    21:00 +19°C° 0 mm 1 mps 757 mmHg 45%
    22:00 +19°C° 0 mm 1 mps 757 mmHg 46%
    23:00 +18°C° 0 mm 1 mps 758 mmHg 48%

    26 October, Saturday

    Time Temperature Precipitation Wind Pressure Humidity
    00:00 +18°C° 0 mm 1 mps 758 mmHg 49%
    01:00 +16°C° 0 mm 1 mps 758 mmHg 51%
    02:00 +16°C° 0 mm 1 mps 758 mmHg 52%
    03:00 +15°C° 0 mm 1 mps 758 mmHg 54%
    04:00 +15°C° 0 mm 1 mps 758 mmHg 56%
    05:00 +15°C° 0 mm 1 mps 758 mmHg 57%
    06:00 +15°C° 0 mm 1 mps 758 mmHg 56%
    07:00 +15°C° 0 mm 1 mps 758 mmHg 56%
    08:00 +16°C° 0 mm 1 mps 758 mmHg 55%
    09:00 +18°C° 0 mm 1 mps 759 mmHg 49%
    10:00 +20°C° 0 mm 1 mps 759 mmHg 44%
    11:00 +22°C° 0 mm 1 mps 759 mmHg 38%
    12:00 +23°C° 0 mm 1 mps 758 mmHg 36%
    13:00 +24°C° 0 mm 1 mps 758 mmHg 34%
    14:00 +25°C° 0 mm 1 mps 757 mmHg 32%
    15:00 +24°C° 0 mm 2 mps 757 mmHg 35%
    16:00 +23°C° 0 mm 2 mps 757 mmHg 37%
    17:00 +23°C° 0 mm 2 mps 757 mmHg 39%
    18:00 +20°C° 0 mm 2 mps 757 mmHg 44%
    19:00 +19°C° 0 mm 2 mps 757 mmHg 48%
    20:00 +18°C° 0 mm 3 mps 757 mmHg 52%
    21:00 +18°C° 0 mm 3 mps 758 mmHg 53%
    22:00 +17°C° 0 mm 2 mps 758 mmHg 55%
    23:00 +17°C° 0 mm 2 mps 758 mmHg 56%

    27 October, Sunday

    Time Temperature Precipitation Wind Pressure Humidity
    00:00 +16°C° 0 mm 2 mps 758 mmHg 58%
    01:00 +16°C° 0 mm 2 mps 758 mmHg 59%
    02:00 +15°C° 0 mm 2 mps 758 mmHg 61%
    03:00 +15°C° 0 mm 2 mps 758 mmHg 63%
    04:00 +14°C° 0 mm 2 mps 758 mmHg 64%
    05:00 +14°C° 0 mm 2 mps 758 mmHg 66%
    06:00 +14°C° 0 mm 2 mps 758 mmHg 66%
    07:00 +14°C° 0 mm 2 mps 758 mmHg 65%
    08:00 +15°C° 0 mm 1 mps 758 mmHg 64%
    09:00 +18°C° 0 mm 1 mps 758 mmHg 58%
    10:00 +19°C° 0 mm 1 mps 758 mmHg 52%
    11:00 +19°C° 0 mm 0 mps 758 mmHg 45%
    12:00 +20°C° 0 mm 0 mps 757 mmHg 43%
    13:00 +23°C° 0 mm 1 mps 757 mmHg 40%
    14:00 +24°C° 0 mm 1 mps 757 mmHg 38%
    15:00 +23°C° 0 mm 1 mps 756 mmHg 40%
    16:00 +22°C° 0 mm 1 mps 756 mmHg 42%
    17:00 +21°C° 0 mm 1 mps 756 mmHg 43%
    18:00 +21°C° 0 mm 1 mps 756 mmHg 46%
    19:00 +20°C° 0 mm 1 mps 756 mmHg 48%
    20:00 +19°C° 0 mm 1 mps 757 mmHg 51%
    21:00 +18°C° 0 mm 1 mps 757 mmHg 52%
    22:00 +18°C° 0 mm 1 mps 757 mmHg 53%
    23:00 +18°C° 0 mm 1 mps 757 mmHg 55%
    Show more